FW9287 Weather Reports


Display with metric or nautical units.
time (UTC)temp
F
wind
direction
speed
MPH
gust
MPH
rain 1hr
in
rain 24hr
in
rain mn
in
humidity
%
barometer
mb
20260508233955 98 209 2.0 6.0 0.00 0.00 0.00 9 914.7
20260508233848 98 131 2.0 6.0 0.00 0.00 0.00 9 914.7
20260508233741 98 194 2.0 6.0 0.00 0.00 0.00 9 914.7
20260508233634 99 173 2.0 6.0 0.00 0.00 0.00 8 914.7
20260508233309 99 187 1.0 6.0 0.00 0.00 0.00 8 914.7
20260508233201 99 133 1.0 6.0 0.00 0.00 0.00 8 914.8
20260508232835 99 258 1.0 6.0 0.00 0.00 0.00 8 914.8
20260508232731 99 288 1.0 6.0 0.00 0.00 0.00 8 914.8
20260508232625 99 337 1.0 6.0 0.00 0.00 0.00 8 914.8
20260508232255 99 290 1.0 6.0 0.00 0.00 0.00 9 914.8
20260508232149 99 254 1.0 6.0 0.00 0.00 0.00 9 914.8
20260508232045 99 233 1.0 6.0 0.00 0.00 0.00 9 914.8
20260508231941 99 0 1.0 5.0 0.00 0.00 0.00 9 914.8
20260508231835 99 261 1.0 5.0 0.00 0.00 0.00 10 914.8
20260508231733 99 319 1.0 5.0 0.00 0.00 0.00 9 914.8
20260508231627 99 243 2.0 5.0 0.00 0.00 0.00 9 914.9
20260508231520 99 171 2.0 5.0 0.00 0.00 0.00 9 914.9
20260508231154 99 202 1.0 10.0 0.00 0.00 0.00 9 914.9
20260508231051 99 289 1.0 10.0 0.00 0.00 0.00 9 914.9
20260508230946 99 229 1.0 10.0 0.00 0.00 0.00 9 914.9
20260508230841 99 311 2.0 10.0 0.00 0.00 0.00 9 915.0
20260508230737 99 267 2.0 10.0 0.00 0.00 0.00 8 915.0
20260508230633 99 342 2.0 10.0 0.00 0.00 0.00 8 915.1
20260508230526 99 326 2.0 10.0 0.00 0.00 0.00 9 915.0
20260508230420 99 274 2.0 10.0 0.00 0.00 0.00 9 915.1
20260508230316 99 300 3.0 10.0 0.00 0.00 0.00 9 915.1
20260508230207 98 258 4.0 10.0 0.00 0.00 0.00 9 915.1
20260508225842 98 246 4.0 10.0 0.00 0.00 0.00 9 915.1
20260508225735 99 196 4.0 10.0 0.00 0.00 0.00 9 915.1
20260508225627 99 218 3.0 10.0 0.00 0.00 0.00 9 915.2
20260508225523 99 263 4.0 10.0 0.00 0.00 0.00 9 915.1
20260508225417 99 253 4.0 10.0 0.00 0.00 0.00 9 915.2
20260508225310 99 234 3.0 10.0 0.00 0.00 0.00 9 915.2
20260508225204 99 228 2.0 14.0 0.00 0.00 0.00 9 915.2
20260508225056 99 213 2.0 14.0 0.00 0.00 0.00 9 915.2
20260508224949 99 230 2.0 14.0 0.00 0.00 0.00 9 915.2
20260508224845 99 281 2.0 14.0 0.00 0.00 0.00 9 915.2
20260508224742 99 307 2.0 14.0 0.00 0.00 0.00 9 915.3
20260508224639 99 312 2.0 14.0 0.00 0.00 0.00 9 915.3
20260508224535 99 287 1.0 14.0 0.00 0.00 0.00 9 915.3
20260508224431 99 302 1.0 14.0 0.00 0.00 0.00 9 915.3
20260508224327 99 24 2.0 14.0 0.00 0.00 0.00 9 915.3
20260508224219 99 300 2.0 14.0 0.00 0.00 0.00 8 915.3
20260508224111 99 346 3.0 14.0 0.00 0.00 0.00 8 915.3
20260508224003 99 327 3.0 14.0 0.00 0.00 0.00 9 915.3
20260508223856 99 0 3.0 14.0 0.00 0.00 0.00 9 915.4
20260508223750 99 290 4.0 14.0 0.00 0.00 0.00 9 915.3
20260508223642 99 284 4.0 14.0 0.00 0.00 0.00 9 915.4
20260508223538 99 260 5.0 14.0 0.00 0.00 0.00 9 915.4
20260508223431 98 257 5.0 14.0 0.00 0.00 0.00 9 915.3
20260508223325 99 247 5.0 14.0 0.00 0.00 0.00 9 915.4
20260508223217 99 216 4.0 12.0 0.00 0.00 0.00 9 915.4
20260508223111 99 265 4.0 12.0 0.00 0.00 0.00 9 915.3
20260508223006 99 286 3.0 12.0 0.00 0.00 0.00 9 915.4
20260508222205 98 188 1.0 7.0 0.00 0.00 0.00 9 915.5
20260508222103 98 115 2.0 7.0 0.00 0.00 0.00 9 915.5
20260508221738 98 113 2.0 10.0 0.00 0.00 0.00 9 915.5
20260508221632 98 134 2.0 10.0 0.00 0.00 0.00 9 915.5
20260508221528 97 154 2.0 10.0 0.00 0.00 0.00 9 915.6
20260508221426 98 140 3.0 10.0 0.00 0.00 0.00 9 915.6
20260508220840 98 231 5.0 10.0 0.00 0.00 0.00 9 915.7
20260508220736 98 161 5.0 10.0 0.00 0.00 0.00 9 915.7
20260508220632 98 186 6.0 10.0 0.00 0.00 0.00 9 915.8
20260508220046 98 202 3.0 10.0 0.00 0.00 0.00 8 915.8
20260508215942 98 194 3.0 10.0 0.00 0.00 0.00 8 915.9
20260508215839 98 225 2.0 10.0 0.00 0.00 0.00 8 915.9
20260508215734 98 219 2.0 9.0 0.00 0.00 0.00 8 915.9
20260508215630 98 232 1.0 7.0 0.00 0.00 0.00 9 915.9
20260508215528 98 272 1.0 7.0 0.00 0.00 0.00 8 915.9
20260508215420 97 232 1.0 6.0 0.00 0.00 0.00 7 915.9
20260508215317 97 197 1.0 9.0 0.00 0.00 0.00 7 915.9
20260508215212 97 5 1.0 9.0 0.00 0.00 0.00 8 915.9
20260508215108 97 296 1.0 9.0 0.00 0.00 0.00 8 915.9
20260508215004 97 268 1.0 9.0 0.00 0.00 0.00 9 915.9
20260508214856 97 309 1.0 9.0 0.00 0.00 0.00 10 915.9
20260508214535 97 74 2.0 9.0 0.00 0.00 0.00 8 916.0
20260508214207 97 36 3.0 13.0 0.00 0.00 0.00 9 916.0
20260508214100 97 27 3.0 13.0 0.00 0.00 0.00 9 916.1
20260508213952 97 318 3.0 13.0 0.00 0.00 0.00 10 916.1
20260508213849 97 285 4.0 13.0 0.00 0.00 0.00 10 916.1
20260508213742 97 279 4.0 13.0 0.00 0.00 0.00 10 916.1
20260508213637 97 221 4.0 13.0 0.00 0.00 0.00 10 916.2
20260508213531 97 229 5.0 13.0 0.00 0.00 0.00 10 916.2
20260508213201 97 244 6.0 13.0 0.00 0.00 0.00 10 916.2
20260508212838 97 241 7.0 13.0 0.00 0.00 0.00 10 916.3
20260508212731 97 234 8.0 13.0 0.00 0.00 0.00 10 916.2
20260508212627 97 221 8.0 13.0 0.00 0.00 0.00 10 916.2
20260508212524 97 282 7.0 13.0 0.00 0.00 0.00 9 916.2
20260508212419 97 243 7.0 13.0 0.00 0.00 0.00 9 916.3
20260508212311 97 225 6.0 13.0 0.00 0.00 0.00 10 916.3
20260508212204 97 222 5.0 13.0 0.00 0.00 0.00 10 916.2
20260508212101 97 198 5.0 15.0 0.00 0.00 0.00 10 916.3
20260508211955 97 245 4.0 15.0 0.00 0.00 0.00 10 916.3
20260508211850 97 215 4.0 15.0 0.00 0.00 0.00 9 916.3
20260508211747 97 244 4.0 15.0 0.00 0.00 0.00 9 916.3
20260508211643 97 244 4.0 15.0 0.00 0.00 0.00 10 916.4
20260508211538 97 254 4.0 15.0 0.00 0.00 0.00 10 916.3
20260508211434 97 205 5.0 15.0 0.00 0.00 0.00 10 916.4
20260508210844 97 198 6.0 15.0 0.00 0.00 0.00 10 916.5
20260508210740 97 215 5.0 15.0 0.00 0.00 0.00 10 916.6
20260508210634 97 221 5.0 15.0 0.00 0.00 0.00 10 916.5
20260508210529 97 257 4.0 15.0 0.00 0.00 0.00 10 916.5
20260508210424 97 240 4.0 15.0 0.00 0.00 0.00 10 916.5
20260508210317 98 232 4.0 15.0 0.00 0.00 0.00 10 916.6
20260508210211 98 199 3.0 15.0 0.00 0.00 0.00 10 916.5
20260508210106 98 216 3.0 10.0 0.00 0.00 0.00 10 916.6
20260508210002 98 209 2.0 7.0 0.00 0.00 0.00 11 916.6
20260508205859 98 251 2.0 12.0 0.00 0.00 0.00 11 916.6
20260508205755 98 296 2.0 12.0 0.00 0.00 0.00 11 916.6
20260508205646 97 240 2.0 12.0 0.00 0.00 0.00 11 916.6
20260508205540 97 219 2.0 12.0 0.00 0.00 0.00 11 916.7
20260508205432 97 344 2.0 12.0 0.00 0.00 0.00 11 916.7
20260508205325 97 210 2.0 12.0 0.00 0.00 0.00 11 916.7
20260508204959 97 217 4.0 12.0 0.00 0.00 0.00 11 916.7
20260508204634 97 246 4.0 12.0 0.00 0.00 0.00 10 916.8
20260508204530 97 217 4.0 12.0 0.00 0.00 0.00 11 916.8
20260508204424 97 175 4.0 12.0 0.00 0.00 0.00 11 916.8
20260508204321 97 187 4.0 12.0 0.00 0.00 0.00 11 916.8
20260508204214 97 240 3.0 12.0 0.00 0.00 0.00 11 916.8
20260508203844 97 215 2.0 9.0 0.00 0.00 0.00 11 916.9
20260508203739 97 200 2.0 9.0 0.00 0.00 0.00 11 916.8
20260508203413 96 336 2.0 9.0 0.00 0.00 0.00 11 916.9
20260508203307 96 288 3.0 9.0 0.00 0.00 0.00 11 916.8
20260508203204 96 307 3.0 9.0 0.00 0.00 0.00 11 916.9
20260508203101 96 209 3.0 9.0 0.00 0.00 0.00 11 917.0
20260508202958 96 50 3.0 9.0 0.00 0.00 0.00 11 916.9
20260508202854 96 215 3.0 9.0 0.00 0.00 0.00 11 917.0
20260508202747 96 262 4.0 9.0 0.00 0.00 0.00 11 917.0
20260508202645 96 223 4.0 9.0 0.00 0.00 0.00 11 917.0
20260508202538 96 205 4.0 9.0 0.00 0.00 0.00 11 917.0
20260508202434 96 231 4.0 9.0 0.00 0.00 0.00 11 917.0
20260508202326 96 227 3.0 9.0 0.00 0.00 0.00 12 917.0
20260508202220 96 227 3.0 9.0 0.00 0.00 0.00 11 917.0
20260508202113 96 233 3.0 8.0 0.00 0.00 0.00 11 917.0
20260508202007 96 196 3.0 8.0 0.00 0.00 0.00 11 917.1
20260508201903 96 336 3.0 8.0 0.00 0.00 0.00 11 917.1
20260508201756 96 273 3.0 8.0 0.00 0.00 0.00 11 917.1
20260508201649 96 248 3.0 8.0 0.00 0.00 0.00 11 917.1
20260508201545 96 232 3.0 8.0 0.00 0.00 0.00 11 917.1
20260508201437 96 210 2.0 8.0 0.00 0.00 0.00 11 917.1
20260508201330 96 302 3.0 8.0 0.00 0.00 0.00 11 917.1
20260508201224 96 241 3.0 8.0 0.00 0.00 0.00 11 917.2
20260508201118 96 198 3.0 8.0 0.00 0.00 0.00 11 917.1
20260508201014 96 227 3.0 8.0 0.00 0.00 0.00 12 917.1
20260508200908 96 302 3.0 7.0 0.00 0.00 0.00 12 917.1
20260508200804 96 278 2.0 7.0 0.00 0.00 0.00 12 917.1
20260508200217 95 347 2.0 7.0 0.00 0.00 0.00 12 917.3
20260508200114 95 234 2.0 7.0 0.00 0.00 0.00 12 917.3
20260508200010 95 300 2.0 7.0 0.00 0.00 0.00 12 917.3
20260508195904 95 233 2.0 7.0 0.00 0.00 0.00 12 917.3
20260508195537 95 221 2.0 7.0 0.00 0.00 0.00 12 917.4
20260508195208 95 316 2.0 8.0 0.00 0.00 0.00 11 917.4
20260508195106 95 222 2.0 8.0 0.00 0.00 0.00 11 917.5
20260508195003 95 5 2.0 8.0 0.00 0.00 0.00 11 917.5
20260508194858 95 294 2.0 8.0 0.00 0.00 0.00 12 917.5
20260508194756 95 0 2.0 8.0 0.00 0.00 0.00 11 917.5
20260508194653 95 268 2.0 8.0 0.00 0.00 0.00 11 917.5
20260508194548 95 238 2.0 8.0 0.00 0.00 0.00 11 917.6
20260508194445 95 272 1.0 8.0 0.00 0.00 0.00 11 917.7
20260508194342 95 224 2.0 8.0 0.00 0.00 0.00 11 917.6
20260508194238 95 5 2.0 8.0 0.00 0.00 0.00 11 917.6
20260508193914 95 268 2.0 8.0 0.00 0.00 0.00 12 917.7
20260508193807 95 239 2.0 8.0 0.00 0.00 0.00 11 917.7
20260508193704 94 229 2.0 8.0 0.00 0.00 0.00 12 917.8
20260508193557 94 280 2.0 8.0 0.00 0.00 0.00 12 917.8
20260508193453 94 257 2.0 8.0 0.00 0.00 0.00 12 917.8
20260508193346 94 243 2.0 8.0 0.00 0.00 0.00 12 917.8
20260508193239 94 241 2.0 8.0 0.00 0.00 0.00 12 917.8
20260508193135 94 239 2.0 6.0 0.00 0.00 0.00 11 917.8
20260508193029 94 10 2.0 6.0 0.00 0.00 0.00 11 917.8
20260508192925 94 312 2.0 6.0 0.00 0.00 0.00 11 917.8
20260508192818 94 187 2.0 6.0 0.00 0.00 0.00 12 917.9
20260508192715 94 301 2.0 6.0 0.00 0.00 0.00 12 917.9
20260508192611 94 303 2.0 6.0 0.00 0.00 0.00 12 917.9
20260508192504 94 232 2.0 6.0 0.00 0.00 0.00 12 917.9
20260508192400 94 260 2.0 6.0 0.00 0.00 0.00 12 918.0
20260508192258 94 348 2.0 6.0 0.00 0.00 0.00 12 917.9
20260508192152 94 304 2.0 6.0 0.00 0.00 0.00 12 917.9
20260508192046 94 225 1.0 6.0 0.00 0.00 0.00 12 917.9
20260508191942 94 46 1.0 6.0 0.00 0.00 0.00 12 917.9
20260508191835 94 310 1.0 6.0 0.00 0.00 0.00 12 918.0
20260508191731 94 240 1.0 5.0 0.00 0.00 0.00 12 917.9
20260508191625 94 126 1.0 5.0 0.00 0.00 0.00 12 918.0
20260508191519 94 247 1.0 5.0 0.00 0.00 0.00 13 918.0
20260508191414 93 223 1.0 5.0 0.00 0.00 0.00 12 917.9
20260508191311 93 189 1.0 3.0 0.00 0.00 0.00 13 918.0
20260508191204 93 229 0.0 3.0 0.00 0.00 0.00 13 918.0
20260508191055 93 285 0.0 2.0 0.00 0.00 0.00 13 918.0
20260508190949 93 338 0.0 4.0 0.00 0.00 0.00 13 918.0
20260508190842 93 271 0.0 4.0 0.00 0.00 0.00 13 918.0
20260508190517 92 229 1.0 4.0 0.00 0.00 0.00 13 918.0
20260508190413 92 11 1.0 4.0 0.00 0.00 0.00 13 918.1
20260508190310 92 34 1.0 4.0 0.00 0.00 0.00 13 918.1
20260508190204 92 40 1.0 4.0 0.00 0.00 0.00 13 918.1
20260508185615 92 36 0.0 7.0 0.00 0.00 0.00 13 918.1
20260508185509 92 347 0.0 7.0 0.00 0.00 0.00 13 918.1
20260508185403 92 297 0.0 7.0 0.00 0.00 0.00 13 918.2
20260508185257 92 294 1.0 7.0 0.00 0.00 0.00 13 918.1
20260508185153 92 350 1.0 7.0 0.00 0.00 0.00 13 918.2
20260508185049 92 332 2.0 7.0 0.00 0.00 0.00 13 918.2
20260508184945 92 332 2.0 7.0 0.00 0.00 0.00 14 918.2
20260508184622 92 249 2.0 7.0 0.00 0.00 0.00 13 918.3
20260508184252 91 248 2.0 7.0 0.00 0.00 0.00 14 918.3
20260508184150 91 211 1.0 7.0 0.00 0.00 0.00 14 918.3
20260508184043 91 227 1.0 7.0 0.00 0.00 0.00 14 918.3
20260508183939 91 252 1.0 6.0 0.00 0.00 0.00 14 918.3
20260508183835 91 224 1.0 6.0 0.00 0.00 0.00 14 918.3
20260508183732 91 294 1.0 6.0 0.00 0.00 0.00 13 918.3
20260508183407 91 338 1.0 6.0 0.00 0.00 0.00 13 918.4
20260508183303 91 320 1.0 6.0 0.00 0.00 0.00 13 918.4
20260508183201 91 27 1.0 6.0 0.00 0.00 0.00 13 918.4
20260508182838 91 232 1.0 6.0 0.00 0.00 0.00 14 918.4
20260508182732 91 300 1.0 5.0 0.00 0.00 0.00 14 918.4
20260508182625 91 256 1.0 5.0 0.00 0.00 0.00 13 918.5
20260508182301 91 342 1.0 5.0 0.00 0.00 0.00 13 918.5
20260508182155 91 286 2.0 5.0 0.00 0.00 0.00 13 918.5
20260508182048 91 224 2.0 5.0 0.00 0.00 0.00 13 918.5
20260508181941 91 248 2.0 5.0 0.00 0.00 0.00 13 918.5
20260508181837 91 236 1.0 5.0 0.00 0.00 0.00 14 918.5
20260508181514 91 33 1.0 5.0 0.00 0.00 0.00 13 918.6
20260508181408 91 254 1.0 5.0 0.00 0.00 0.00 13 918.6
20260508181302 91 269 1.0 5.0 0.00 0.00 0.00 13 918.6
20260508181159 91 232 1.0 5.0 0.00 0.00 0.00 13 918.6
20260508181055 91 212 1.0 5.0 0.00 0.00 0.00 13 918.6
20260508180948 91 242 0.0 4.0 0.00 0.00 0.00 13 918.6
20260508180840 91 234 0.0 4.0 0.00 0.00 0.00 13 918.6
20260508180511 90 331 0.0 4.0 0.00 0.00 0.00 13 918.7
20260508180145 90 11 1.0 4.0 0.00 0.00 0.00 13 918.7
20260508180041 90 11 1.0 4.0 0.00 0.00 0.00 13 918.7
20260508175937 90 262 1.0 4.0 0.00 0.00 0.00 14 918.8
20260508175833 90 238 1.0 4.0 0.00 0.00 0.00 13 918.7
20260508175728 90 238 1.0 4.0 0.00 0.00 0.00 14 918.7
20260508175620 90 271 1.0 4.0 0.00 0.00 0.00 14 918.7
20260508175253 89 254 0.0 4.0 0.00 0.00 0.00 14 918.7
20260508175146 89 264 0.0 3.0 0.00 0.00 0.00 13 918.7
20260508175039 89 32 0.0 2.0 0.00 0.00 0.00 13 918.7
20260508174932 89 265 0.0 2.0 0.00 0.00 0.00 13 918.7
20260508174824 89 348 0.0 2.0 0.00 0.00 0.00 13 918.8
20260508174458 89 346 0.0 4.0 0.00 0.00 0.00 13 918.7
20260508174355 88 39 0.0 4.0 0.00 0.00 0.00 14 918.8
20260508174249 88 196 1.0 4.0 0.00 0.00 0.00 14 918.8
20260508174147 88 157 1.0 4.0 0.00 0.00 0.00 14 918.8
20260508174041 88 65 1.0 4.0 0.00 0.00 0.00 14 918.8
20260508173940 88 285 1.0 4.0 0.00 0.00 0.00 14 918.8
20260508173617 88 279 1.0 5.0 0.00 0.00 0.00 15 918.8
20260508173511 88 238 1.0 5.0 0.00 0.00 0.00 14 918.8
20260508173407 88 249 0.0 5.0 0.00 0.00 0.00 15 918.8
20260508173300 88 5 0.0 5.0 0.00 0.00 0.00 15 918.8
20260508173156 88 257 1.0 5.0 0.00 0.00 0.00 15 918.9
20260508173050 87 223 1.0 5.0 0.00 0.00 0.00 15 918.9
20260508172943 87 22 0.0 5.0 0.00 0.00 0.00 15 918.9
20260508172840 87 320 1.0 5.0 0.00 0.00 0.00 15 918.9
20260508172511 87 217 0.0 3.0 0.00 0.00 0.00 16 918.9
20260508172403 87 227 1.0 3.0 0.00 0.00 0.00 15 918.9
20260508172259 87 244 1.0 3.0 0.00 0.00 0.00 15 918.9
20260508172156 86 250 0.0 3.0 0.00 0.00 0.00 15 918.9
20260508172050 86 229 0.0 3.0 0.00 0.00 0.00 15 918.9
20260508171726 86 221 1.0 3.0 0.00 0.00 0.00 16 918.9
20260508171623 86 194 1.0 0.0 0.00 0.00 0.00 15 918.9
20260508171518 86 194 1.0 5.0 0.00 0.00 0.00 15 918.9
20260508171411 86 194 1.0 5.0 0.00 0.00 0.00 15 918.9
20260508171306 85 220 1.0 5.0 0.00 0.00 0.00 15 918.9
20260508171203 85 269 1.0 5.0 0.00 0.00 0.00 15 919.0
20260508171057 85 261 1.0 5.0 0.00 0.00 0.00 15 918.9
20260508170954 85 284 1.0 3.0 0.00 0.00 0.00 15 918.9
20260508170851 85 229 1.0 3.0 0.00 0.00 0.00 15 919.0
20260508170742 85 248 1.0 5.0 0.00 0.00 0.00 15 919.0
20260508170639 85 204 1.0 5.0 0.00 0.00 0.00 15 919.0
20260508170532 85 253 1.0 5.0 0.00 0.00 0.00 15 918.9
20260508170427 85 257 1.0 5.0 0.00 0.00 0.00 15 919.0
20260508170323 85 301 1.0 5.0 0.00 0.00 0.00 15 919.0
20260508170221 85 344 1.0 5.0 0.00 0.00 0.00 15 919.0
20260508170113 85 325 1.0 5.0 0.00 0.00 0.00 15 919.0
20260508170006 85 315 1.0 5.0 0.00 0.00 0.00 15 919.0
20260508165904 85 313 1.0 5.0 0.00 0.00 0.00 15 919.0
20260508165316 85 207 1.0 5.0 0.00 0.00 0.00 15 919.0
20260508165212 85 199 1.0 5.0 0.00 0.00 0.00 15 919.0
20260508165109 85 209 1.0 5.0 0.00 0.00 0.00 16 919.0
20260508165007 85 252 1.0 5.0 0.00 0.00 0.00 15 919.0
20260508164903 85 193 1.0 5.0 0.00 0.00 0.00 15 919.0
20260508164756 85 263 1.0 3.0 0.00 0.00 0.00 15 919.0
20260508164654 85 247 1.0 3.0 0.00 0.00 0.00 15 919.0
20260508164551 85 256 1.0 3.0 0.00 0.00 0.00 15 919.0
20260508164445 85 234 1.0 3.0 0.00 0.00 0.00 16 919.0
20260508164120 85 248 1.0 3.0 0.00 0.00 0.00 16 919.0
20260508164015 85 269 1.0 3.0 0.00 0.00 0.00 15 919.0
20260508163648 85 313 1.0 3.0 0.00 0.00 0.00 16 919.0
20260508163544 85 279 1.0 2.0 0.00 0.00 0.00 16 919.0
20260508163438 85 300 1.0 2.0 0.00 0.00 0.00 16 919.0
20260508163335 84 269 0.0 2.0 0.00 0.00 0.00 16 919.0
20260508163228 84 290 0.0 2.0 0.00 0.00 0.00 15 918.9
20260508163124 84 355 0.0 2.0 0.00 0.00 0.00 16 919.0
20260508163021 84 265 0.0 2.0 0.00 0.00 0.00 16 919.0
20260508162915 84 321 0.0 2.0 0.00 0.00 0.00 16 918.9
20260508162554 84 291 0.0 1.0 0.00 0.00 0.00 16 919.0
20260508162447 84 261 0.0 1.0 0.00 0.00 0.00 16 918.9
20260508162340 84 261 0.0 1.0 0.00 0.00 0.00 16 919.0
20260508162235 84 180 0.0 1.0 0.00 0.00 0.00 17 918.9
20260508162128 84 180 0.0 1.0 0.00 0.00 0.00 16 918.9
20260508162023 84 180 0.0 1.0 0.00 0.00 0.00 15 918.9
20260508161436 83 105 0.0 0.0 0.00 0.00 0.00 16 918.9
20260508161330 83 189 0.0 0.0 0.00 0.00 0.00 16 918.9
20260508161226 83 189 0.0 0.0 0.00 0.00 0.00 16 918.9
20260508160641 82 189 0.0 1.0 0.00 0.00 0.00 16 918.9
20260508160312 82 189 0.0 1.0 0.00 0.00 0.00 17 918.9
20260508160210 81 189 0.0 1.0 0.00 0.00 0.00 16 918.8
20260508155400 81 189 0.0 0.0 0.00 0.00 0.00 17 918.9
20260508155253 80 189 0.0 0.0 0.00 0.00 0.00 17 918.9
20260508155146 80 189 0.0 0.0 0.00 0.00 0.00 17 918.8
20260508155041 80 189 0.0 0.0 0.00 0.00 0.00 18 918.9
20260508154933 80 189 0.0 0.0 0.00 0.00 0.00 18 918.9
20260508154831 80 189 0.0 2.0 0.00 0.00 0.00 17 918.9
20260508154723 80 189 0.0 2.0 0.00 0.00 0.00 17 918.9
20260508154619 80 203 0.0 2.0 0.00 0.00 0.00 17 918.9
20260508154514 80 203 0.0 2.0 0.00 0.00 0.00 18 918.9
20260508154407 80 224 0.0 0.0 0.00 0.00 0.00 17 918.9
20260508154301 80 224 0.0 0.0 0.00 0.00 0.00 17 918.9
20260508154155 80 207 0.0 1.0 0.00 0.00 0.00 17 918.9
20260508154050 79 196 0.0 1.0 0.00 0.00 0.00 17 918.9
20260508153948 79 196 0.0 1.0 0.00 0.00 0.00 18 918.9
20260508153625 79 192 0.0 2.0 0.00 0.00 0.00 17 918.9
20260508153517 79 192 0.0 2.0 0.00 0.00 0.00 17 918.9
20260508153414 79 192 0.0 2.0 0.00 0.00 0.00 17 918.9
20260508153312 79 196 0.0 2.0 0.00 0.00 0.00 17 918.9
20260508153206 79 201 0.0 2.0 0.00 0.00 0.00 17 919.0
20260508153100 79 201 0.0 2.0 0.00 0.00 0.00 17 918.9
20260508152952 79 201 0.0 2.0 0.00 0.00 0.00 17 918.9
20260508152845 79 168 0.0 2.0 0.00 0.00 0.00 18 918.9
20260508152255 78 154 0.0 1.0 0.00 0.00 0.00 18 918.9
20260508152152 78 134 0.0 1.0 0.00 0.00 0.00 18 918.9
20260508151831 78 109 0.0 0.0 0.00 0.00 0.00 19 918.9
20260508151725 78 111 0.0 0.0 0.00 0.00 0.00 19 918.9
20260508151617 77 111 0.0 1.0 0.00 0.00 0.00 19 918.8
20260508151511 77 111 0.0 1.0 0.00 0.00 0.00 19 918.9
20260508151405 77 141 0.0 1.0 0.00 0.00 0.00 19 918.9
20260508151301 77 141 0.0 1.0 0.00 0.00 0.00 19 918.8
20260508151158 77 141 0.0 1.0 0.00 0.00 0.00 19 918.8
20260508151054 77 140 0.0 0.0 0.00 0.00 0.00 19 918.9
20260508150951 77 140 0.0 0.0 0.00 0.00 0.00 19 918.9
20260508150622 76 95 0.0 0.0 0.00 0.00 0.00 19 918.9
20260508150519 76 82 0.0 1.0 0.00 0.00 0.00 19 918.9
20260508150414 76 82 0.0 1.0 0.00 0.00 0.00 19 918.9
20260508150309 76 121 0.0 0.0 0.00 0.00 0.00 19 918.9
20260508150206 76 121 0.0 0.0 0.00 0.00 0.00 19 918.9
20260508145958 75 107 0.0 0.0 0.00 0.00 0.00 19 918.9
20260508145851 75 103 0.0 0.0 0.00 0.00 0.00 20 918.9
20260508145524 75 71 0.0 0.0 0.00 0.00 0.00 20 918.9
20260508145420 74 63 0.0 0.0 0.00 0.00 0.00 20 918.9
20260508145317 74 109 0.0 0.0 0.00 0.00 0.00 21 918.9
20260508145209 74 109 0.0 0.0 0.00 0.00 0.00 21 918.9
20260508145102 74 109 0.0 2.0 0.00 0.00 0.00 20 918.9
20260508144958 74 109 0.0 2.0 0.00 0.00 0.00 21 918.9
20260508144632 73 84 0.0 2.0 0.00 0.00 0.00 21 918.9
20260508144530 73 84 0.0 2.0 0.00 0.00 0.00 21 918.9
20260508144425 73 84 0.0 2.0 0.00 0.00 0.00 20 918.9
20260508144319 73 84 0.0 2.0 0.00 0.00 0.00 20 918.9
20260508144212 73 78 0.0 2.0 0.00 0.00 0.00 20 918.8
20260508143846 72 94 0.0 1.0 0.00 0.00 0.00 21 918.8
20260508143741 72 94 0.0 1.0 0.00 0.00 0.00 22 918.9
20260508143638 71 106 0.0 0.0 0.00 0.00 0.00 22 918.9
20260508143531 71 106 0.0 0.0 0.00 0.00 0.00 22 918.8
20260508143426 71 214 0.0 0.0 0.00 0.00 0.00 22 918.9
20260508142838 70 214 0.0 0.0 0.00 0.00 0.00 23 918.9
20260508142735 70 214 0.0 0.0 0.00 0.00 0.00 24 918.9
20260508142628 70 214 0.0 0.0 0.00 0.00 0.00 24 918.9
20260508142521 70 214 0.0 0.0 0.00 0.00 0.00 23 918.9
20260508142154 69 214 0.0 0.0 0.00 0.00 0.00 23 918.9
20260508142049 69 214 0.0 1.0 0.00 0.00 0.00 23 918.8
20260508141946 69 214 0.0 1.0 0.00 0.00 0.00 23 918.9
20260508141842 69 355 0.0 0.0 0.00 0.00 0.00 23 918.8
20260508141735 68 355 0.0 0.0 0.00 0.00 0.00 24 918.8
20260508141630 68 355 0.0 0.0 0.00 0.00 0.00 24 918.8
20260508141525 68 355 0.0 0.0 0.00 0.00 0.00 24 918.7
20260508141423 68 355 0.0 0.0 0.00 0.00 0.00 24 918.8
20260508141058 67 355 0.0 0.0 0.00 0.00 0.00 25 918.7
20260508140953 67 355 0.0 0.0 0.00 0.00 0.00 25 918.7
20260508140846 67 355 0.0 0.0 0.00 0.00 0.00 25 918.7
20260508140738 67 355 0.0 0.0 0.00 0.00 0.00 25 918.7
20260508140636 67 355 0.0 0.0 0.00 0.00 0.00 25 918.6
20260508140528 66 355 0.0 0.0 0.00 0.00 0.00 27 918.7
20260508140421 66 355 0.0 0.0 0.00 0.00 0.00 25 918.6
20260508140319 66 355 0.0 0.0 0.00 0.00 0.00 25 918.6
20260508140212 66 355 0.0 0.0 0.00 0.00 0.00 24 918.5
20260508140110 66 355 0.0 0.0 0.00 0.00 0.00 25 918.6
20260508140005 66 355 0.0 0.0 0.00 0.00 0.00 26 918.6
20260508134938 65 355 0.0 0.0 0.00 0.00 0.00 26 918.4
20260508134612 64 355 0.0 0.0 0.00 0.00 0.00 26 918.4
20260508134510 64 355 0.0 0.0 0.00 0.00 0.00 26 918.4
20260508134406 64 355 0.0 0.0 0.00 0.00 0.00 26 918.4
20260508133341 64 355 0.0 0.0 0.00 0.00 0.00 27 918.2
20260508133237 64 355 0.0 0.0 0.00 0.00 0.00 27 918.3
20260508133135 64 355 0.0 0.0 0.00 0.00 0.00 26 918.2
20260508133033 64 355 0.0 0.0 0.00 0.00 0.00 25 918.2
20260508132930 64 355 0.0 0.0 0.00 0.00 0.00 26 918.2
20260508132822 64 355 0.0 0.0 0.00 0.00 0.00 27 918.2
20260508132715 64 355 0.0 0.0 0.00 0.00 0.00 26 918.2
20260508132609 64 355 0.0 0.0 0.00 0.00 0.00 26 918.2
20260508132504 64 355 0.0 0.0 0.00 0.00 0.00 26 918.3
20260508132402 64 355 0.0 0.0 0.00 0.00 0.00 26 918.2
20260508132256 64 355 0.0 0.0 0.00 0.00 0.00 26 918.1
20260508132151 64 355 0.0 0.0 0.00 0.00 0.00 26 918.1
20260508132045 64 355 0.0 0.0 0.00 0.00 0.00 26 918.1
20260508131457 64 355 0.0 1.0 0.00 0.00 0.00 26 918.0
20260508131132 64 355 0.0 1.0 0.00 0.00 0.00 26 918.0
20260508131028 64 355 0.0 1.0 0.00 0.00 0.00 26 918.0
20260508130924 64 355 0.0 1.0 0.00 0.00 0.00 26 918.0
20260508130818 64 355 0.0 1.0 0.00 0.00 0.00 26 918.0
20260508130711 64 355 0.0 1.0 0.00 0.00 0.00 26 918.0
20260508130608 64 355 0.0 1.0 0.00 0.00 0.00 26 917.9
20260508130501 64 355 0.0 1.0 0.00 0.00 0.00 26 917.9
20260508130359 64 355 0.0 1.0 0.00 0.00 0.00 26 917.9
20260508130256 65 355 0.0 1.0 0.00 0.00 0.00 26 917.8
20260508130149 65 355 0.0 1.0 0.00 0.00 0.00 26 917.9
20260508130046 65 355 0.0 0.0 0.00 0.00 0.00 25 917.8
20260508125717 65 355 0.0 2.0 0.00 0.00 0.00 26 917.8
20260508125614 65 355 0.0 2.0 0.00 0.00 0.00 26 917.7
20260508125507 65 355 0.0 2.0 0.00 0.00 0.00 26 917.8
20260508125401 65 355 0.0 2.0 0.00 0.00 0.00 26 917.7
20260508125255 65 355 0.0 2.0 0.00 0.00 0.00 26 917.7
20260508124930 65 355 0.0 2.0 0.00 0.00 0.00 25 917.6
20260508124823 65 355 0.0 2.0 0.00 0.00 0.00 25 917.6
20260508124718 65 355 0.0 2.0 0.00 0.00 0.00 25 917.6
20260508124612 65 355 0.0 2.0 0.00 0.00 0.00 25 917.6
20260508124507 65 355 0.0 2.0 0.00 0.00 0.00 26 917.6
20260508124403 65 355 0.0 2.0 0.00 0.00 0.00 25 917.6
20260508124300 65 9 0.0 2.0 0.00 0.00 0.00 25 917.5
20260508124154 65 13 0.0 2.0 0.00 0.00 0.00 25 917.5
20260508124047 65 355 0.0 1.0 0.00 0.00 0.00 25 917.5
20260508123942 65 350 0.0 0.0 0.00 0.00 0.00 25 917.5
20260508123837 65 348 0.0 0.0 0.00 0.00 0.00 25 917.5
20260508123731 65 348 0.0 3.0 0.00 0.00 0.00 25 917.5
20260508123626 65 348 0.0 3.0 0.00 0.00 0.00 24 917.5
20260508123517 65 5 0.0 3.0 0.00 0.00 0.00 24 917.4
20260508123411 65 5 1.0 3.0 0.00 0.00 0.00 25 917.5
20260508123304 65 5 1.0 3.0 0.00 0.00 0.00 25 917.5
20260508123157 65 346 1.0 3.0 0.00 0.00 0.00 25 917.5
20260508123054 65 0 1.0 3.0 0.00 0.00 0.00 25 917.5
20260508122729 65 355 1.0 3.0 0.00 0.00 0.00 25 917.4
20260508122622 65 17 0.0 3.0 0.00 0.00 0.00 25 917.5
20260508122517 65 355 0.0 3.0 0.00 0.00 0.00 25 917.4
20260508122409 65 16 0.0 2.0 0.00 0.00 0.00 25 917.5
20260508122307 65 19 0.0 1.0 0.00 0.00 0.00 24 917.5
20260508122159 66 26 0.0 1.0 0.00 0.00 0.00 24 917.5
20260508122052 66 40 0.0 1.0 0.00 0.00 0.00 24 917.5
20260508121947 66 40 0.0 1.0 0.00 0.00 0.00 24 917.4
20260508121841 66 40 0.0 1.0 0.00 0.00 0.00 24 917.4
20260508121735 66 40 0.0 1.0 0.00 0.00 0.00 24 917.5
20260508121631 66 40 0.0 1.0 0.00 0.00 0.00 24 917.5
20260508121526 66 40 0.0 0.0 0.00 0.00 0.00 24 917.5
20260508121420 66 40 0.0 0.0 0.00 0.00 0.00 25 917.5
20260508121314 66 40 0.0 0.0 0.00 0.00 0.00 24 917.5
20260508121207 66 40 0.0 0.0 0.00 0.00 0.00 24 917.5
20260508121104 66 40 0.0 0.0 0.00 0.00 0.00 24 917.5
20260508120742 66 40 0.0 1.0 0.00 0.00 0.00 24 917.4
20260508120638 66 40 0.0 1.0 0.00 0.00 0.00 24 917.5
20260508120530 66 40 0.0 1.0 0.00 0.00 0.00 24 917.4
20260508120425 66 40 0.0 1.0 0.00 0.00 0.00 24 917.5
20260508115956 66 40 0.0 0.0 0.00 0.00 0.00 23 917.5
20260508115854 66 40 0.0 0.0 0.00 0.00 0.00 23 917.5
20260508115747 66 40 0.0 2.0 0.00 0.00 0.00 23 917.5
20260508115641 66 40 0.0 2.0 0.00 0.00 0.00 23 917.5
20260508115538 66 40 0.0 2.0 0.00 0.00 0.00 23 917.4
20260508115434 66 43 0.0 2.0 0.00 0.00 0.00 23 917.5
20260508115331 66 43 0.0 2.0 0.00 0.00 0.00 23 917.5
20260508115222 66 43 0.0 2.0 0.00 0.00 0.00 23 917.5
20260508114640 66 59 0.0 1.0 0.00 0.00 0.00 23 917.4
20260508114538 66 59 0.0 1.0 0.00 0.00 0.00 23 917.4
20260508114433 66 59 0.0 1.0 0.00 0.00 0.00 23 917.5
20260508113850 66 59 0.0 0.0 0.00 0.00 0.00 23 917.4
20260508113748 66 59 0.0 0.0 0.00 0.00 0.00 23 917.4
20260508113640 66 59 0.0 0.0 0.00 0.00 0.00 23 917.4
20260508113052 66 59 0.0 3.0 0.00 0.00 0.00 23 917.4
20260508112946 66 40 0.0 3.0 0.00 0.00 0.00 23 917.4
20260508112622 66 40 0.0 3.0 0.00 0.00 0.00 23 917.4
20260508112039 66 351 0.0 2.0 0.00 0.00 0.00 23 917.4
20260508111935 66 348 0.0 2.0 0.00 0.00 0.00 23 917.4
20260508111829 66 345 0.0 2.0 0.00 0.00 0.00 23 917.4
20260508111722 66 345 0.0 2.0 0.00 0.00 0.00 23 917.4
20260508111621 66 345 0.0 2.0 0.00 0.00 0.00 23 917.4
20260508111518 66 355 0.0 2.0 0.00 0.00 0.00 23 917.4
20260508111411 66 355 0.0 2.0 0.00 0.00 0.00 23 917.4
20260508111308 66 5 0.0 1.0 0.00 0.00 0.00 23 917.3
20260508111159 66 5 0.0 1.0 0.00 0.00 0.00 23 917.3
20260508111054 66 5 0.0 1.0 0.00 0.00 0.00 23 917.3
20260508110952 66 5 0.0 1.0 0.00 0.00 0.00 23 917.3
20260508110849 66 5 0.0 1.0 0.00 0.00 0.00 23 917.4
20260508110746 66 5 0.0 1.0 0.00 0.00 0.00 23 917.4
20260508110419 66 5 0.0 1.0 0.00 0.00 0.00 23 917.3
20260508110312 66 5 0.0 1.0 0.00 0.00 0.00 23 917.3
20260508110206 66 5 0.0 1.0 0.00 0.00 0.00 23 917.4
20260508110100 66 5 0.0 1.0 0.00 0.00 0.00 23 917.4
20260508105953 66 5 0.0 1.0 0.00 0.00 0.00 23 917.4
20260508105849 66 5 0.0 1.0 0.00 0.00 0.00 23 917.3
20260508105743 66 5 0.0 1.0 0.00 0.00 0.00 23 917.4
20260508105636 66 5 0.0 1.0 0.00 0.00 0.00 23 917.4
20260508105307 66 5 0.0 1.0 0.00 0.00 0.00 23 917.4
20260508105204 66 5 0.0 1.0 0.00 0.00 0.00 23 917.3
20260508104838 66 5 0.0 1.0 0.00 0.00 0.00 23 917.3
20260508104736 66 5 0.0 1.0 0.00 0.00 0.00 23 917.3
20260508104630 66 5 0.0 0.0 0.00 0.00 0.00 23 917.3
20260508104526 66 5 0.0 0.0 0.00 0.00 0.00 23 917.3
20260508103942 66 5 0.0 0.0 0.00 0.00 0.00 24 917.4
20260508103839 66 5 0.0 0.0 0.00 0.00 0.00 24 917.4
20260508103734 66 5 0.0 0.0 0.00 0.00 0.00 24 917.4
20260508103407 67 5 0.0 1.0 0.00 0.00 0.00 23 917.3
20260508103304 67 5 0.0 1.0 0.00 0.00 0.00 23 917.3
20260508103159 67 5 0.0 0.0 0.00 0.00 0.00 23 917.3
20260508103055 67 5 0.0 0.0 0.00 0.00 0.00 23 917.3
20260508102951 67 5 0.0 0.0 0.00 0.00 0.00 23 917.2
20260508102848 67 5 0.0 0.0 0.00 0.00 0.00 23 917.3
20260508102742 67 5 0.0 0.0 0.00 0.00 0.00 23 917.3
20260508102640 67 5 0.0 1.0 0.00 0.00 0.00 23 917.3
20260508102534 67 5 0.0 1.0 0.00 0.00 0.00 23 917.3
20260508102431 67 5 0.0 1.0 0.00 0.00 0.00 23 917.4
20260508102106 67 5 0.0 0.0 0.00 0.00 0.00 24 917.4
20260508102001 67 5 0.0 0.0 0.00 0.00 0.00 24 917.4
20260508101858 67 5 0.0 0.0 0.00 0.00 0.00 24 917.3
20260508101752 67 5 0.0 0.0 0.00 0.00 0.00 24 917.3
20260508101423 67 5 0.0 0.0 0.00 0.00 0.00 24 917.3
20260508101100 67 5 0.0 0.0 0.00 0.00 0.00 24 917.3
20260508100735 67 5 0.0 1.0 0.00 0.00 0.00 24 917.3
20260508100410 67 5 0.0 1.0 0.00 0.00 0.00 23 917.2
20260508100303 67 5 0.0 1.0 0.00 0.00 0.00 23 917.3
20260508100157 67 5 0.0 1.0 0.00 0.00 0.00 22 917.3
20260508100050 67 5 0.0 0.0 0.00 0.00 0.00 22 917.2
20260508095948 67 5 0.0 0.0 0.00 0.00 0.00 22 917.3
20260508095841 67 5 0.0 0.0 0.00 0.00 0.00 22 917.3
20260508095512 67 5 0.0 2.0 0.00 0.00 0.00 23 917.3
20260508095408 67 351 0.0 1.0 0.00 0.00 0.00 23 917.3
20260508095305 67 355 0.0 1.0 0.00 0.00 0.00 23 917.3
20260508095157 67 332 0.0 1.0 0.00 0.00 0.00 23 917.3
20260508095055 67 332 0.0 1.0 0.00 0.00 0.00 22 917.3
20260508094948 67 332 0.0 1.0 0.00 0.00 0.00 22 917.3
20260508094845 67 332 0.0 1.0 0.00 0.00 0.00 23 917.3
20260508094741 67 332 0.0 1.0 0.00 0.00 0.00 23 917.3
20260508094637 67 332 0.0 1.0 0.00 0.00 0.00 23 917.3
20260508094529 67 332 0.0 1.0 0.00 0.00 0.00 23 917.3
20260508094421 67 332 0.0 1.0 0.00 0.00 0.00 23 917.2
20260508093613 68 332 0.0 0.0 0.00 0.00 0.00 22 917.3
20260508093509 68 332 0.0 1.0 0.00 0.00 0.00 22 917.3
20260508093402 68 332 0.0 1.0 0.00 0.00 0.00 22 917.2
20260508093255 68 320 0.0 1.0 0.00 0.00 0.00 22 917.3
20260508093152 68 285 0.0 0.0 0.00 0.00 0.00 22 917.3
20260508092342 68 284 0.0 0.0 0.00 0.00 0.00 22 917.1
20260508092239 68 284 0.0 0.0 0.00 0.00 0.00 22 917.1
20260508092133 68 284 0.0 0.0 0.00 0.00 0.00 22 917.1
20260508092026 68 284 0.0 0.0 0.00 0.00 0.00 22 917.2
20260508090953 69 348 0.0 2.0 0.00 0.00 0.00 21 917.3
20260508090625 69 348 1.0 2.0 0.00 0.00 0.00 21 917.3
20260508090516 69 348 1.0 2.0 0.00 0.00 0.00 21 917.3
20260508090409 69 348 1.0 2.0 0.00 0.00 0.00 21 917.3
20260508090304 69 348 1.0 2.0 0.00 0.00 0.00 21 917.2
20260508090157 69 348 1.0 2.0 0.00 0.00 0.00 21 917.2
20260508090048 69 348 1.0 2.0 0.00 0.00 0.00 20 917.3
20260508085940 69 5 1.0 2.0 0.00 0.00 0.00 20 917.3
20260508085836 69 355 0.0 2.0 0.00 0.00 0.00 20 917.3
20260508085733 69 5 0.0 2.0 0.00 0.00 0.00 20 917.3
20260508085625 69 10 0.0 1.0 0.00 0.00 0.00 20 917.3
20260508085306 70 350 0.0 1.0 0.00 0.00 0.00 20 917.3
20260508085156 70 334 0.0 1.0 0.00 0.00 0.00 20 917.3
20260508084831 70 284 0.0 1.0 0.00 0.00 0.00 20 917.3
20260508084503 71 284 0.0 1.0 0.00 0.00 0.00 20 917.4
20260508084400 71 284 0.0 1.0 0.00 0.00 0.00 20 917.4
20260508084036 71 284 0.0 1.0 0.00 0.00 0.00 19 917.4
20260508083932 71 284 0.0 1.0 0.00 0.00 0.00 19 917.4
20260508083828 71 284 0.0 1.0 0.00 0.00 0.00 19 917.4
20260508083721 71 284 0.0 0.0 0.00 0.00 0.00 19 917.4
20260508083612 71 284 0.0 0.0 0.00 0.00 0.00 19 917.4
20260508083508 71 284 0.0 0.0 0.00 0.00 0.00 19 917.4
20260508082924 72 284 0.0 3.0 0.00 0.00 0.00 19 917.3
20260508082821 72 284 0.0 3.0 0.00 0.00 0.00 19 917.4
20260508082717 72 284 0.0 3.0 0.00 0.00 0.00 18 917.4
20260508082613 72 284 0.0 3.0 0.00 0.00 0.00 18 917.3
20260508082505 73 276 0.0 3.0 0.00 0.00 0.00 18 917.4
20260508082141 73 236 0.0 3.0 0.00 0.00 0.00 18 917.3
20260508082038 73 236 0.0 3.0 0.00 0.00 0.00 18 917.4
20260508081711 74 220 0.0 2.0 0.00 0.00 0.00 18 917.4
20260508081608 74 228 0.0 1.0 0.00 0.00 0.00 18 917.4
20260508081502 74 228 0.0 0.0 0.00 0.00 0.00 18 917.3
20260508080659 75 234 0.0 0.0 0.00 0.00 0.00 18 917.4
20260508080552 75 234 0.0 0.0 0.00 0.00 0.00 18 917.3
20260508080450 75 234 0.0 3.0 0.00 0.00 0.00 18 917.4
20260508080343 75 234 0.0 3.0 0.00 0.00 0.00 17 917.3
20260508080236 76 225 0.0 3.0 0.00 0.00 0.00 18 917.3
20260508080128 76 355 0.0 3.0 0.00 0.00 0.00 17 917.3
20260508080022 76 292 0.0 3.0 0.00 0.00 0.00 17 917.3
20260508075700 76 254 1.0 3.0 0.00 0.00 0.00 17 917.3
20260508075557 76 254 1.0 3.0 0.00 0.00 0.00 17 917.3
20260508075455 76 234 1.0 3.0 0.00 0.00 0.00 17 917.3
20260508075352 76 236 1.0 3.0 0.00 0.00 0.00 17 917.3
20260508075247 76 226 1.0 3.0 0.00 0.00 0.00 17 917.4
20260508075140 77 175 1.0 3.0 0.00 0.00 0.00 17 917.3
20260508075036 77 37 1.0 3.0 0.00 0.00 0.00 17 917.3
20260508074930 77 36 1.0 3.0 0.00 0.00 0.00 17 917.3
20260508074828 77 34 1.0 3.0 0.00 0.00 0.00 17 917.3
20260508074503 77 38 2.0 4.0 0.00 0.00 0.00 17 917.3
20260508074400 77 38 2.0 4.0 0.00 0.00 0.00 17 917.3
20260508074255 77 44 2.0 4.0 0.00 0.00 0.00 17 917.3
20260508074151 76 56 2.0 4.0 0.00 0.00 0.00 17 917.2
20260508074044 76 46 2.0 4.0 0.00 0.00 0.00 17 917.3
20260508073938 76 53 2.0 4.0 0.00 0.00 0.00 17 917.2
20260508073831 76 35 2.0 4.0 0.00 0.00 0.00 17 917.3
20260508073507 76 44 2.0 4.0 0.00 0.00 0.00 17 917.2
20260508073400 76 44 2.0 4.0 0.00 0.00 0.00 17 917.2
20260508073256 76 57 2.0 4.0 0.00 0.00 0.00 17 917.1
20260508073150 75 46 2.0 4.0 0.00 0.00 0.00 17 917.2
20260508073046 75 67 2.0 4.0 0.00 0.00 0.00 17 917.2
20260508072941 75 55 2.0 4.0 0.00 0.00 0.00 17 917.2
20260508072838 75 51 2.0 4.0 0.00 0.00 0.00 18 917.1
20260508072732 75 40 2.0 4.0 0.00 0.00 0.00 18 917.1
20260508072148 74 71 2.0 4.0 0.00 0.00 0.00 18 917.1
20260508072041 74 61 2.0 4.0 0.00 0.00 0.00 18 917.2
20260508071935 74 62 2.0 4.0 0.00 0.00 0.00 18 917.1
20260508071828 74 62 2.0 4.0 0.00 0.00 0.00 18 917.1
20260508071503 73 55 1.0 3.0 0.00 0.00 0.00 18 917.1
20260508071357 73 44 1.0 3.0 0.00 0.00 0.00 18 917.1
20260508071253 73 36 1.0 3.0 0.00 0.00 0.00 19 917.1
20260508071147 73 36 1.0 3.0 0.00 0.00 0.00 18 917.1
20260508071045 73 39 1.0 3.0 0.00 0.00 0.00 18 917.1
20260508070937 73 36 1.0 3.0 0.00 0.00 0.00 18 917.2
20260508070835 73 39 1.0 3.0 0.00 0.00 0.00 18 917.1
20260508070729 73 30 1.0 4.0 0.00 0.00 0.00 18 917.1
20260508070624 73 29 2.0 4.0 0.00 0.00 0.00 18 917.1
20260508070518 73 22 2.0 4.0 0.00 0.00 0.00 18 917.1
20260508070411 73 28 2.0 4.0 0.00 0.00 0.00 18 917.1
20260508070306 73 31 2.0 4.0 0.00 0.00 0.00 18 917.2
20260508070203 74 24 2.0 4.0 0.00 0.00 0.00 18 917.2
20260508070059 74 30 2.0 4.0 0.00 0.00 0.00 18 917.2
20260508065953 74 24 2.0 4.0 0.00 0.00 0.00 18 917.2
20260508065850 74 22 1.0 4.0 0.00 0.00 0.00 18 917.2
20260508065306 74 5 0.0 9.0 0.00 0.00 0.00 18 917.2
20260508065201 75 0 0.0 9.0 0.00 0.00 0.00 18 917.2
20260508064830 75 332 0.0 9.0 0.00 0.00 0.00 17 917.2
20260508064723 75 315 0.0 1.0 0.00 0.00 0.00 17 917.3
20260508064616 75 309 0.0 1.0 0.00 0.00 0.00 17 917.3
20260508064510 75 305 0.0 1.0 0.00 0.00 0.00 17 917.3
20260508064407 75 305 0.0 1.0 0.00 0.00 0.00 17 917.3
20260508064301 75 303 0.0 1.0 0.00 0.00 0.00 17 917.2
20260508064153 75 286 0.0 1.0 0.00 0.00 0.00 17 917.3
20260508064048 76 286 0.0 1.0 0.00 0.00 0.00 17 917.2
20260508063945 76 234 1.0 1.0 0.00 0.00 0.00 17 917.2
20260508063622 76 234 1.0 0.0 0.00 0.00 0.00 17 917.1
20260508063518 76 234 1.0 8.0 0.00 0.00 0.00 17 917.1
20260508063411 76 234 2.0 8.0 0.00 0.00 0.00 17 917.1
20260508063307 76 234 2.0 8.0 0.00 0.00 0.00 17 917.1
20260508063204 77 244 2.0 8.0 0.00 0.00 0.00 17 917.1
20260508063100 77 242 2.0 8.0 0.00 0.00 0.00 17 917.1
20260508062957 77 236 1.0 8.0 0.00 0.00 0.00 17 917.0
20260508062632 77 237 2.0 9.0 0.00 0.00 0.00 16 917.0
20260508062526 78 221 2.0 9.0 0.00 0.00 0.00 16 916.9
20260508062421 78 215 1.0 9.0 0.00 0.00 0.00 16 916.9
20260508062316 78 226 1.0 9.0 0.00 0.00 0.00 16 916.9
20260508062212 78 44 1.0 3.0 0.00 0.00 0.00 16 916.7
20260508062105 78 44 1.0 3.0 0.00 0.00 0.00 16 916.6
20260508062002 78 44 1.0 3.0 0.00 0.00 0.00 16 916.7
20260508061859 78 30 2.0 3.0 0.00 0.00 0.00 16 916.6
20260508061757 78 35 2.0 3.0 0.00 0.00 0.00 16 916.6
20260508061432 78 25 2.0 3.0 0.00 0.00 0.00 16 916.6
20260508060847 78 26 2.0 3.0 0.00 0.00 0.00 16 916.6
20260508060743 78 19 2.0 3.0 0.00 0.00 0.00 16 916.7
20260508060641 78 25 2.0 3.0 0.00 0.00 0.00 16 916.6
20260508060532 78 20 1.0 6.0 0.00 0.00 0.00 16 916.6
20260508060427 78 32 2.0 6.0 0.00 0.00 0.00 16 916.7
20260508055844 79 47 2.0 6.0 0.00 0.00 0.00 16 916.6
20260508055516 79 28 2.0 6.0 0.00 0.00 0.00 15 916.6
20260508055410 79 30 2.0 6.0 0.00 0.00 0.00 16 916.6
20260508055306 79 13 2.0 6.0 0.00 0.00 0.00 15 916.6
20260508055159 79 39 2.0 6.0 0.00 0.00 0.00 15 916.6
20260508054831 79 26 2.0 6.0 0.00 0.00 0.00 15 916.6
20260508054248 79 32 2.0 5.0 0.00 0.00 0.00 16 916.6
20260508054144 79 26 2.0 5.0 0.00 0.00 0.00 15 916.6
20260508054037 79 20 2.0 5.0 0.00 0.00 0.00 15 916.6
20260508053932 79 16 2.0 5.0 0.00 0.00 0.00 15 916.6
20260508053609 79 32 1.0 4.0 0.00 0.00 0.00 15 916.6
20260508053505 79 41 1.0 4.0 0.00 0.00 0.00 15 916.6
20260508053401 79 28 1.0 4.0 0.00 0.00 0.00 15 916.6
20260508053038 79 43 2.0 4.0 0.00 0.00 0.00 15 916.6
20260508052712 79 32 1.0 4.0 0.00 0.00 0.00 15 916.6
20260508052346 80 34 2.0 4.0 0.00 0.00 0.00 15 916.7
20260508052022 80 45 1.0 3.0 0.00 0.00 0.00 15 916.7
20260508051916 80 49 1.0 3.0 0.00 0.00 0.00 15 916.6
20260508051810 80 50 1.0 3.0 0.00 0.00 0.00 15 916.7
20260508051707 80 26 1.0 3.0 0.00 0.00 0.00 15 916.6
20260508051604 80 38 2.0 3.0 0.00 0.00 0.00 15 916.6
20260508051459 80 34 2.0 5.0 0.00 0.00 0.00 15 916.6
20260508051351 80 38 2.0 5.0 0.00 0.00 0.00 15 916.6
20260508051243 80 30 2.0 5.0 0.00 0.00 0.00 15 916.6
20260508051138 80 40 2.0 5.0 0.00 0.00 0.00 15 916.6
20260508051031 80 38 2.0 5.0 0.00 0.00 0.00 15 916.6
20260508050929 80 32 2.0 5.0 0.00 0.00 0.00 15 916.6
20260508050826 80 38 2.0 5.0 0.00 0.00 0.00 15 916.6
20260508050724 80 37 3.0 5.0 0.00 0.00 0.00 15 916.6
20260508050620 80 43 3.0 5.0 0.00 0.00 0.00 15 916.6
20260508050516 80 49 3.0 5.0 0.00 0.00 0.00 15 916.6
20260508050413 80 33 3.0 5.0 0.00 0.00 0.00 15 916.6
20260508050305 80 44 2.0 5.0 0.00 0.00 0.00 15 916.7
20260508050157 80 51 2.0 5.0 0.00 0.00 0.00 15 916.6
20260508050051 80 54 2.0 5.0 0.00 0.00 0.00 15 916.6
20260508045943 80 49 2.0 5.0 0.00 0.00 0.00 15 916.6
20260508045840 80 52 2.0 5.0 0.00 0.00 0.00 15 916.6
20260508045515 80 61 2.0 4.0 0.00 0.00 0.00 15 916.6
20260508045411 80 52 2.0 4.0 0.00 0.00 0.00 15 916.6
20260508045307 80 53 2.0 4.0 0.00 0.00 0.00 15 916.6
20260508045200 80 58 2.0 4.0 0.00 0.00 0.00 15 916.6
20260508045054 80 42 2.0 4.0 0.00 0.00 0.00 15 916.6
20260508044946 80 82 2.0 4.0 0.00 0.00 0.00 15 916.7
20260508044838 80 67 2.0 4.0 0.00 0.00 0.00 15 916.6
20260508044731 80 63 1.0 4.0 0.00 0.00 0.00 15 916.7
20260508044407 80 65 1.0 3.0 0.00 0.00 0.00 15 916.7
20260508044304 80 83 1.0 3.0 0.00 0.00 0.00 15 916.6
20260508044157 80 86 1.0 3.0 0.00 0.00 0.00 15 916.7
20260508044054 80 84 1.0 3.0 0.00 0.00 0.00 15 916.6
20260508043949 80 66 1.0 3.0 0.00 0.00 0.00 15 916.7
20260508043840 80 92 1.0 3.0 0.00 0.00 0.00 15 916.6
20260508043735 80 85 1.0 2.0 0.00 0.00 0.00 15 916.6
20260508043630 80 78 1.0 2.0 0.00 0.00 0.00 15 916.6
20260508043527 80 72 1.0 2.0 0.00 0.00 0.00 15 916.6
20260508043200 80 79 1.0 2.0 0.00 0.00 0.00 15 916.6
20260508043052 80 74 1.0 2.0 0.00 0.00 0.00 15 916.6
20260508042727 80 77 1.0 2.0 0.00 0.00 0.00 15 916.6
20260508042619 81 88 1.0 2.0 0.00 0.00 0.00 15 916.6
20260508042513 81 82 1.0 2.0 0.00 0.00 0.00 15 916.6
20260508042409 81 55 1.0 2.0 0.00 0.00 0.00 15 916.6
20260508042307 81 90 1.0 4.0 0.00 0.00 0.00 15 916.6
20260508042202 81 77 1.0 4.0 0.00 0.00 0.00 15 916.6
20260508042057 81 80 1.0 4.0 0.00 0.00 0.00 15 916.6
20260508041955 81 80 1.0 4.0 0.00 0.00 0.00 15 916.5
20260508041851 81 88 1.0 4.0 0.00 0.00 0.00 15 916.5
20260508041749 81 81 1.0 4.0 0.00 0.00 0.00 15 916.5
20260508041424 81 77 1.0 4.0 0.00 0.00 0.00 15 916.5
20260508041320 81 38 1.0 4.0 0.00 0.00 0.00 15 916.5
20260508041216 81 70 1.0 4.0 0.00 0.00 0.00 15 916.5
20260508041109 81 65 1.0 4.0 0.00 0.00 0.00 15 916.4
20260508041003 81 62 2.0 4.0 0.00 0.00 0.00 15 916.4
20260508040858 81 65 1.0 4.0 0.00 0.00 0.00 15 916.4
20260508040753 81 68 1.0 4.0 0.00 0.00 0.00 15 916.4
20260508040431 81 74 1.0 4.0 0.00 0.00 0.00 15 916.3
20260508040325 81 63 1.0 4.0 0.00 0.00 0.00 15 916.3
20260508040223 81 62 1.0 3.0 0.00 0.00 0.00 15 916.3
20260508040117 81 55 1.0 3.0 0.00 0.00 0.00 15 916.3
20260508040009 81 68 1.0 3.0 0.00 0.00 0.00 15 916.3
20260508035903 81 67 1.0 2.0 0.00 0.00 0.00 15 916.3
20260508035314 81 62 1.0 2.0 0.00 0.00 0.00 15 916.2
20260508035211 81 87 1.0 2.0 0.00 0.00 0.00 15 916.3
20260508035109 81 81 1.0 2.0 0.00 0.00 0.00 15 916.3
20260508035006 82 48 1.0 2.0 0.00 0.00 0.00 15 916.2
20260508034902 82 79 0.0 2.0 0.00 0.00 0.00 15 916.3
20260508034759 82 60 0.0 2.0 0.00 0.00 0.00 15 916.3
20260508034656 82 51 0.0 2.0 0.00 0.00 0.00 15 916.2
20260508034553 82 66 0.0 2.0 0.00 0.00 0.00 15 916.3
20260508034449 82 77 0.0 1.0 0.00 0.00 0.00 15 916.2
20260508034345 82 74 0.0 1.0 0.00 0.00 0.00 15 916.2
20260508034024 82 84 0.0 1.0 0.00 0.00 0.00 15 916.2
20260508033920 82 84 0.0 1.0 0.00 0.00 0.00 14 916.1
20260508033817 82 105 0.0 1.0 0.00 0.00 0.00 14 916.2
20260508033715 82 109 0.0 1.0 0.00 0.00 0.00 14 916.1
20260508033607 82 109 0.0 1.0 0.00 0.00 0.00 14 916.1
20260508033501 83 111 0.0 1.0 0.00 0.00 0.00 14 916.1
20260508033137 83 132 0.0 1.0 0.00 0.00 0.00 14 916.1
20260508033029 83 157 0.0 1.0 0.00 0.00 0.00 14 916.1
20260508032923 83 157 0.0 1.0 0.00 0.00 0.00 14 916.1
20260508032817 83 158 0.0 0.0 0.00 0.00 0.00 14 916.1
20260508032710 83 178 0.0 0.0 0.00 0.00 0.00 14 916.1
20260508032606 84 178 0.0 0.0 0.00 0.00 0.00 14 916.0
20260508032459 84 184 0.0 0.0 0.00 0.00 0.00 14 916.0
20260508032355 84 184 0.0 0.0 0.00 0.00 0.00 14 916.0
20260508032251 84 200 0.0 0.0 0.00 0.00 0.00 14 916.0
20260508032144 84 200 0.0 0.0 0.00 0.00 0.00 14 916.0
20260508032038 84 200 0.0 0.0 0.00 0.00 0.00 14 916.0
20260508031931 84 200 0.0 0.0 0.00 0.00 0.00 14 916.0
20260508031828 84 200 0.0 0.0 0.00 0.00 0.00 14 916.0
20260508031725 85 200 0.0 0.0 0.00 0.00 0.00 14 916.0
20260508031621 85 200 0.0 0.0 0.00 0.00 0.00 13 915.9
20260508031515 85 200 0.0 0.0 0.00 0.00 0.00 14 916.0
20260508031411 85 200 0.0 0.0 0.00 0.00 0.00 14 916.0
20260508031306 85 200 0.0 0.0 0.00 0.00 0.00 13 915.9
20260508031200 85 200 0.0 0.0 0.00 0.00 0.00 13 915.9
20260508031056 85 200 0.0 1.0 0.00 0.00 0.00 13 915.9
20260508030954 85 200 0.0 1.0 0.00 0.00 0.00 13 915.9
20260508030850 85 200 0.0 0.0 0.00 0.00 0.00 13 915.9
20260508030743 85 200 0.0 0.0 0.00 0.00 0.00 13 915.9
20260508030638 86 200 0.0 0.0 0.00 0.00 0.00 13 915.9
20260508030312 86 200 0.0 0.0 0.00 0.00 0.00 13 915.9
20260508030206 86 200 0.0 0.0 0.00 0.00 0.00 13 915.9
20260508030059 86 200 0.0 0.0 0.00 0.00 0.00 13 915.9
20260508025953 86 200 0.0 0.0 0.00 0.00 0.00 13 915.9
20260508025851 86 200 0.0 0.0 0.00 0.00 0.00 13 915.9
20260508025523 86 200 0.0 0.0 0.00 0.00 0.00 13 915.8
20260508025419 86 200 0.0 0.0 0.00 0.00 0.00 13 915.8
20260508025315 87 200 0.0 0.0 0.00 0.00 0.00 13 915.8
20260508025212 87 200 0.0 0.0 0.00 0.00 0.00 13 915.8
20260508025105 87 200 0.0 0.0 0.00 0.00 0.00 13 915.8
20260508024958 87 200 0.0 0.0 0.00 0.00 0.00 13 915.7
20260508024851 87 200 0.0 0.0 0.00 0.00 0.00 13 915.8
20260508024744 87 200 0.0 0.0 0.00 0.00 0.00 13 915.8
20260508024642 87 200 0.0 0.0 0.00 0.00 0.00 13 915.8
20260508024100 88 200 0.0 0.0 0.00 0.00 0.00 12 915.7
20260508023734 88 200 0.0 0.0 0.00 0.00 0.00 12 915.7
20260508023410 88 200 0.0 0.0 0.00 0.00 0.00 12 915.7
20260508023308 88 200 0.0 2.0 0.00 0.00 0.00 12 915.7
20260508023204 88 200 0.0 2.0 0.00 0.00 0.00 12 915.6
20260508023102 88 200 0.0 2.0 0.00 0.00 0.00 12 915.7
20260508022958 88 200 0.0 2.0 0.00 0.00 0.00 12 915.6
20260508022850 89 200 0.0 2.0 0.00 0.00 0.00 12 915.6
20260508022744 89 200 0.0 2.0 0.00 0.00 0.00 12 915.6
20260508022642 89 200 0.0 2.0 0.00 0.00 0.00 12 915.6
20260508022538 89 200 0.0 2.0 0.00 0.00 0.00 12 915.6
20260508022435 89 200 1.0 2.0 0.00 0.00 0.00 12 915.6
20260508022332 89 200 1.0 2.0 0.00 0.00 0.00 12 915.6
20260508022006 89 184 1.0 2.0 0.00 0.00 0.00 11 915.6
20260508021858 89 185 0.0 2.0 0.00 0.00 0.00 11 915.6
20260508021754 90 191 0.0 2.0 0.00 0.00 0.00 11 915.5
20260508021428 90 203 0.0 2.0 0.00 0.00 0.00 11 915.5
20260508021326 90 221 0.0 2.0 0.00 0.00 0.00 11 915.5
20260508021223 90 221 0.0 2.0 0.00 0.00 0.00 11 915.5
20260508021120 90 221 0.0 6.0 0.00 0.00 0.00 11 915.5
20260508021012 90 221 1.0 6.0 0.00 0.00 0.00 11 915.5
20260508020645 90 221 2.0 6.0 0.00 0.00 0.00 11 915.5
20260508020539 90 221 2.0 6.0 0.00 0.00 0.00 11 915.5
20260508020218 91 211 3.0 6.0 0.00 0.00 0.00 10 915.5
20260508020115 91 244 3.0 6.0 0.00 0.00 0.00 10 915.5
20260508020012 91 225 3.0 6.0 0.00 0.00 0.00 10 915.5
20260508015907 91 239 3.0 6.0 0.00 0.00 0.00 10 915.5
20260508015804 91 251 2.0 6.0 0.00 0.00 0.00 10 915.5
20260508015438 91 215 1.0 6.0 0.00 0.00 0.00 10 915.6
20260508015331 92 239 1.0 6.0 0.00 0.00 0.00 10 915.5
20260508015006 92 209 0.0 2.0 0.00 0.00 0.00 10 915.5
20260508014903 92 255 0.0 2.0 0.00 0.00 0.00 10 915.6
20260508014758 92 231 0.0 0.0 0.00 0.00 0.00 10 915.5
20260508014655 92 231 0.0 0.0 0.00 0.00 0.00 10 915.5
20260508014549 92 231 0.0 1.0 0.00 0.00 0.00 10 915.6
20260508014442 92 231 0.0 0.0 0.00 0.00 0.00 10 915.6
20260508014338 92 231 0.0 8.0 0.00 0.00 0.00 10 915.5
20260508014016 92 315 0.0 8.0 0.00 0.00 0.00 9 915.6
20260508013647 92 338 1.0 8.0 0.00 0.00 0.00 9 915.6
20260508013102 93 207 1.0 8.0 0.00 0.00 0.00 10 915.5
20260508012958 93 231 2.0 8.0 0.00 0.00 0.00 10 915.5
20260508012852 93 161 2.0 8.0 0.00 0.00 0.00 9 915.5
20260508012531 93 254 3.0 8.0 0.00 0.00 0.00 9 915.6
20260508012428 93 243 3.0 8.0 0.00 0.00 0.00 9 915.6
20260508012100 93 253 2.0 8.0 0.00 0.00 0.00 9 915.6
20260508011957 93 210 2.0 8.0 0.00 0.00 0.00 9 915.5
20260508011855 93 221 1.0 8.0 0.00 0.00 0.00 9 915.5
20260508011748 94 301 1.0 8.0 0.00 0.00 0.00 9 915.5
20260508011646 94 281 1.0 8.0 0.00 0.00 0.00 9 915.5
20260508011326 94 295 1.0 8.0 0.00 0.00 0.00 9 915.6
20260508011222 94 253 2.0 8.0 0.00 0.00 0.00 9 915.6
20260508011115 94 243 2.0 8.0 0.00 0.00 0.00 9 915.6
20260508011008 94 297 2.0 8.0 0.00 0.00 0.00 9 915.7
20260508010904 94 259 2.0 8.0 0.00 0.00 0.00 9 915.6
20260508010800 94 271 1.0 8.0 0.00 0.00 0.00 9 915.6
20260508010655 94 270 1.0 6.0 0.00 0.00 0.00 9 915.7
20260508010551 94 287 1.0 5.0 0.00 0.00 0.00 9 915.6
20260508010444 94 255 1.0 5.0 0.00 0.00 0.00 9 915.6
20260508010339 94 271 1.0 5.0 0.00 0.00 0.00 9 915.7
20260508010235 94 299 1.0 5.0 0.00 0.00 0.00 9 915.7
20260508010128 94 225 0.0 5.0 0.00 0.00 0.00 9 915.6
20260508010022 94 219 0.0 3.0 0.00 0.00 0.00 9 915.6
20260508005918 94 198 0.0 3.0 0.00 0.00 0.00 9 915.7
20260508005815 94 217 0.0 6.0 0.00 0.00 0.00 9 915.7
20260508005707 94 225 0.0 6.0 0.00 0.00 0.00 9 915.7
20260508005600 94 223 0.0 6.0 0.00 0.00 0.00 9 915.7
20260508005456 94 223 0.0 6.0 0.00 0.00 0.00 9 915.7
20260508005350 94 296 1.0 6.0 0.00 0.00 0.00 9 915.7
20260508005247 94 257 1.0 6.0 0.00 0.00 0.00 9 915.8
20260508005143 94 288 1.0 6.0 0.00 0.00 0.00 9 915.7
20260508005036 94 306 1.0 6.0 0.00 0.00 0.00 8 915.7
20260508004933 94 313 1.0 6.0 0.00 0.00 0.00 8 915.7
20260508004613 94 0 1.0 6.0 0.00 0.00 0.00 8 915.7
20260508004247 94 298 2.0 6.0 0.00 0.00 0.00 8 915.8
20260508004144 94 355 2.0 6.0 0.00 0.00 0.00 9 915.8
20260508004038 94 296 2.0 6.0 0.00 0.00 0.00 8 915.8
20260508003935 94 309 1.0 6.0 0.00 0.00 0.00 8 915.7
20260508003831 94 319 1.0 5.0 0.00 0.00 0.00 8 915.7
20260508003724 94 290 1.0 5.0 0.00 0.00 0.00 8 915.8
20260508003620 94 299 1.0 5.0 0.00 0.00 0.00 8 915.8
20260508003517 95 0 1.0 5.0 0.00 0.00 0.00 8 915.8
20260508003409 95 351 0.0 5.0 0.00 0.00 0.00 8 915.8
20260508003303 94 311 1.0 5.0 0.00 0.00 0.00 8 915.8
20260508003159 94 355 1.0 5.0 0.00 0.00 0.00 8 915.8
20260508003055 94 227 1.0 5.0 0.00 0.00 0.00 9 915.8
20260508002948 94 223 1.0 5.0 0.00 0.00 0.00 9 915.8
20260508002842 94 199 1.0 5.0 0.00 0.00 0.00 8 915.8
20260508002739 94 199 1.0 5.0 0.00 0.00 0.00 8 915.8
20260508002633 94 229 1.0 8.0 0.00 0.00 0.00 8 915.8
20260508002525 94 340 1.0 8.0 0.00 0.00 0.00 8 915.8
20260508002421 94 254 1.0 8.0 0.00 0.00 0.00 9 915.8
20260508002101 94 293 2.0 8.0 0.00 0.00 0.00 9 915.8
20260508001957 94 234 2.0 8.0 0.00 0.00 0.00 9 915.8
20260508001851 94 254 2.0 8.0 0.00 0.00 0.00 9 915.8
20260508001746 94 263 2.0 8.0 0.00 0.00 0.00 9 915.9
20260508001638 94 277 2.0 11.0 0.00 0.00 0.00 9 915.8
20260508001532 94 246 2.0 11.0 0.00 0.00 0.00 9 915.8
20260508001428 94 225 2.0 11.0 0.00 0.00 0.00 9 915.8
20260508001325 94 242 1.0 11.0 0.00 0.00 0.00 9 915.9
20260508001220 94 275 1.0 11.0 0.00 0.00 0.00 9 915.9
20260508001116 94 338 1.0 11.0 0.00 0.00 0.00 9 915.9
20260508000750 94 223 3.0 11.0 0.00 0.00 0.00 8 915.9
20260508000644 94 221 3.0 11.0 0.00 0.00 0.00 8 915.9
20260508000540 94 236 4.0 11.0 0.00 0.00 0.00 8 915.9
20260508000437 94 180 4.0 11.0 0.00 0.00 0.00 8 915.9
20260508000334 94 163 4.0 11.0 0.00 0.00 0.00 8 915.9
20260508000229 94 168 4.0 11.0 0.00 0.00 0.00 8 915.9
20260508000124 94 156 4.0 11.0 0.00 0.00 0.00 8 916.0
20260508000018 94 182 4.0 11.0 0.00 0.00 0.00 8 916.0
20260507235913 94 195 4.0 11.0 0.00 0.00 0.00 7 915.9
20260507235808 95 217 4.0 11.0 0.00 0.00 0.00 8 915.9
20260507235703 95 238 3.0 9.0 0.00 0.00 0.00 8 916.0
20260507235556 95 228 3.0 9.0 0.00 0.00 0.00 8 916.0
20260507235453 95 240 3.0 9.0 0.00 0.00 0.00 8 916.0
20260507235349 95 252 3.0 8.0 0.00 0.00 0.00 8 916.0
20260507235245 95 243 3.0 8.0 0.00 0.00 0.00 8 916.0
20260507235137 95 237 2.0 8.0 0.00 0.00 0.00 8 915.9
20260507235035 95 240 2.0 8.0 0.00 0.00 0.00 8 916.0
20260507234710 95 258 2.0 8.0 0.00 0.00 0.00 8 916.0
20260507234605 95 283 2.0 8.0 0.00 0.00 0.00 7 915.9
20260507234237 95 298 2.0 6.0 0.00 0.00 0.00 8 916.0
20260507234131 95 284 2.0 8.0 0.00 0.00 0.00 8 916.0